Farmington, NM

4:01 AM MDT on September 25, 2017 (GMT -0600)
Four Corners Regional

Weather History for KFMN - November, 2013

Change the Weather History Date:

Tuesday, November 26, 2013

  Actual Average Record
Temperature  
Mean Temperature 34 °F -  
Max Temperature 39 °F 47 °F 61 °F (1998)
Min Temperature 30 °F 23 °F 7 °F (1992)
Degree Days  
Heating Degree Days 30    
Moisture  
Dew Point 28 °F    
Average Humidity 73    
Maximum Humidity 85    
Minimum Humidity 51    
Precipitation  
Precipitation 0.00 in - - ()
Sea Level Pressure  
Sea Level Pressure 30.42 in    
Wind  
Wind Speed 5 mph (NE)    
Max Wind Speed 9 mph    
Max Gust Speed -    
Visibility 10 miles    
Events      
Averages and records for this station are not official NWS values.
T = Trace of Precipitation, MM = Missing Value Source: NWS Daily Summary

Daily Weather History Graph

Daily Weather History Graph

Search for Another Location

Airport or City:

Trip Planner

Search our weather history database for the weather conditions in past years. The results will help you decide how hot, cold, wet, or windy it might be!

Date:

Astronomy

Nov. 26, 2013 Rise Set
Actual Time 7:02 AM MST 4:58 PM MST
Civil Twilight 6:34 AM MST 5:26 PM MST
Nautical Twilight 6:02 AM MST 5:58 PM MST
Astronomical Twilight 5:31 AM MST 6:29 PM MST
Moon 12:18 AM MST (11/26) 12:57 PM MST (11/26)
Length of Visible Light 10h 52m
Length of Day
9h 55m
Last Quarter, 40% of the Moon is Illuminated
Nov 26
Last Quarter
Dec 2
New
Dec 9
First Quarter
Dec 17
Full
Dec 25
Last Quarter

Hourly Weather History & Observations

Time (MST) Temp. Windchill Dew Point Humidity Pressure Visibility Wind Dir Wind Speed Gust Speed Precip Events Conditions
12:53 AM 34.0 °F 26.6 °F 28.0 °F 79% 30.38 in 10.0 mi ENE 9.2 mph - N/A   Overcast
1:53 AM 34.0 °F 28.0 °F 28.0 °F 79% 30.39 in 10.0 mi ENE 6.9 mph - N/A   Overcast
2:53 AM 34.0 °F 27.2 °F 27.0 °F 75% 30.39 in 10.0 mi ENE 8.1 mph - N/A   Overcast
3:53 AM 34.0 °F - 27.0 °F 75% 30.39 in 10.0 mi Calm Calm - N/A   Overcast
4:53 AM 34.0 °F 28.8 °F 28.0 °F 79% 30.40 in 10.0 mi NNE 5.8 mph - N/A   Overcast
5:10 AM 34.0 °F 29.8 °F 27.0 °F 75% 30.35 in 10.0 mi NE 4.6 mph - N/A   Overcast
5:38 AM 33.1 °F 30.0 °F 28.0 °F 82% 30.36 in 10.0 mi NNE 3.5 mph - N/A   Overcast
5:53 AM 33.1 °F 30.0 °F 28.0 °F 82% 30.42 in 10.0 mi North 3.5 mph - N/A   Overcast
6:53 AM 33.1 °F 28.7 °F 27.0 °F 78% 30.44 in 10.0 mi NNE 4.6 mph - N/A   Overcast
7:53 AM 34.0 °F 31.0 °F 28.0 °F 79% 30.44 in 10.0 mi NE 3.5 mph - N/A   Overcast
8:28 AM 35.1 °F 31.0 °F 28.0 °F 76% 30.41 in 10.0 mi East 4.6 mph - N/A   Overcast
8:53 AM 35.1 °F 31.0 °F 28.0 °F 76% 30.46 in 10.0 mi East 4.6 mph - N/A   Overcast
9:01 AM 36.0 °F 31.1 °F 28.0 °F 73% 30.41 in 10.0 mi East 5.8 mph - N/A   Overcast
9:53 AM 36.0 °F - 28.9 °F 76% 30.47 in 10.0 mi Calm Calm - N/A   Overcast
10:28 AM 37.0 °F 33.3 °F 28.9 °F 73% 30.43 in 10.0 mi ESE 4.6 mph - N/A   Overcast
10:53 AM 37.9 °F - 28.9 °F 70% 30.46 in 10.0 mi Calm Calm - N/A   Overcast
11:44 AM 39.9 °F 35.8 °F 30.0 °F 68% 30.41 in 10.0 mi Variable 5.8 mph - N/A   Overcast
11:53 AM 39.9 °F - 28.9 °F 65% 30.44 in 10.0 mi Calm Calm - N/A   Overcast
12:13 PM 39.9 °F - 28.9 °F 65% 30.40 in 10.0 mi Calm Calm - N/A   Overcast
12:53 PM 39.9 °F - 28.9 °F 65% 30.42 in 10.0 mi Calm Calm - N/A   Overcast
1:53 PM 39.9 °F - 28.0 °F 63% 30.41 in 10.0 mi Calm Calm - N/A   Overcast
2:53 PM 39.0 °F 34.8 °F 28.9 °F 67% 30.41 in 10.0 mi NNW 5.8 mph - N/A   Overcast
3:53 PM 39.9 °F - 28.0 °F 63% 30.41 in 10.0 mi Calm Calm - N/A   Overcast
4:53 PM 39.0 °F 33.4 °F 28.9 °F 67% 30.40 in 10.0 mi NE 8.1 mph - N/A   Overcast
5:48 PM 37.4 °F 32.1 °F 30.2 °F 75% 30.38 in 10.0 mi NNE 6.9 mph - N/A   Overcast
5:53 PM 37.9 °F 31.5 °F 30.0 °F 73% 30.42 in 10.0 mi NE 9.2 mph - N/A   Overcast
6:15 PM 37.0 °F 32.4 °F 30.0 °F 76% 30.38 in 10.0 mi North 5.8 mph - N/A   Overcast
6:53 PM 36.0 °F 32.1 °F 30.0 °F 79% 30.43 in 10.0 mi NE 4.6 mph - N/A   Overcast
7:08 PM 36.0 °F 31.1 °F 28.9 °F 76% 30.39 in 10.0 mi NE 5.8 mph - N/A   Overcast
7:18 PM 35.1 °F 30.1 °F 28.9 °F 78% 30.39 in 10.0 mi NNE 5.8 mph - N/A   Mostly Cloudy
7:29 PM 34.0 °F 29.8 °F 28.9 °F 82% 30.39 in 10.0 mi NNE 4.6 mph - N/A   Scattered Clouds
7:53 PM 35.1 °F 28.6 °F 28.0 °F 76% 30.44 in 10.0 mi ENE 8.1 mph - N/A   Clear
8:53 PM 33.1 °F - 27.0 °F 78% 30.45 in 10.0 mi Calm Calm - N/A   Clear
9:53 PM 32.0 °F 27.5 °F 27.0 °F 82% 30.46 in 10.0 mi East 4.6 mph - N/A   Overcast
10:53 PM 30.9 °F 26.2 °F 27.0 °F 85% 30.45 in 10.0 mi ENE 4.6 mph - N/A   Overcast
11:53 PM 30.0 °F 25.2 °F 25.0 °F 82% 30.45 in 10.0 mi East 4.6 mph - N/A   Clear